This is the latest recevied weather packets stored in our database for station/object KG4AGD. If no packets are shown the sender has not sent any weather packets the latest 1 day(s).
| Time | Temp. | Humidity | Pressure | Rain* | Wind** | Luminosity | Snow |
|---|---|---|---|---|---|---|---|
| 1778049660 | 16.11° C | 91% | 1016.2 hPa | 0 mm | 1.79 m/s, 189° | - | - |
| 1778049358 | 16.11° C | 91% | 1016.2 hPa | 0 mm | 0.89 m/s, 175° | - | - |
| 1778049056 | 16.11° C | 90% | 1016.5 hPa | 0 mm | 0.45 m/s, 179° | - | - |
| 1778048754 | 16.11° C | 90% | 1016.5 hPa | 0 mm | 1.34 m/s, 187° | - | - |
| 1778048452 | 16.11° C | 90% | 1016.5 hPa | 0 mm | 1.79 m/s, 187° | - | - |
| 1778048149 | 16.11° C | 89% | 1016.5 hPa | 0 mm | 1.34 m/s, 180° | - | - |
| 1778047847 | 16.67° C | 89% | 1016.5 hPa | 0 mm | 2.24 m/s, 189° | - | - |
| 1778047545 | 16.67° C | 89% | 1016.5 hPa | 0 mm | 2.68 m/s, 192° | - | - |
| 1778047242 | 16.67° C | 88% | 1016.5 hPa | 0 mm | 2.24 m/s, 189° | - | - |
| 1778046940 | 16.67° C | 88% | 1016.5 hPa | 0 mm | 1.34 m/s, 174° | - | - |
| 1778046638 | 16.67° C | 87% | 1016.5 hPa | 0 mm | 2.24 m/s, 214° | - | - |
| 1778046336 | 16.67° C | 87% | 1016.9 hPa | 0 mm | 1.79 m/s, 198° | - | - |
| 1778046033 | 16.67° C | 87% | 1016.9 hPa | 0 mm | 1.79 m/s, 189° | - | - |
| 1778045731 | 16.67° C | 87% | 1016.9 hPa | 0 mm | 2.68 m/s, 194° | - | - |
| 1778045429 | 17.22° C | 86% | 1016.9 hPa | 0 mm | 1.79 m/s, 203° | - | - |
| 1778045127 | 17.22° C | 86% | 1016.9 hPa | 0 mm | 2.24 m/s, 185° | - | - |
| 1778044825 | 17.22° C | 85% | 1016.9 hPa | 0 mm | 2.24 m/s, 164° | - | - |
| 1778044522 | 17.22° C | 85% | 1016.9 hPa | 0 mm | 2.68 m/s, 191° | - | - |
| 1778044220 | 17.22° C | 85% | 1016.9 hPa | 0 mm | 4.02 m/s, 171° | - | - |
| 1778043918 | 17.22° C | 84% | 1016.9 hPa | 0 mm | 1.34 m/s, 212° | - | - |
| 1778043616 | 17.22° C | 84% | 1017.2 hPa | 0 mm | 2.24 m/s, 191° | - | - |
| 1778043313 | 17.22° C | 84% | 1017.2 hPa | 0 mm | 1.34 m/s, 211° | - | - |
| 1778043011 | 17.22° C | 84% | 1017.2 hPa | 0 mm | 1.34 m/s, 208° | - | - |
| 1778042709 | 17.78° C | 83% | 1017.2 hPa | 0 mm | 1.79 m/s, 187° | - | - |
| 1778042406 | 17.78° C | 83% | 1017.2 hPa | 0 mm | 2.24 m/s, 192° | - | - |
* Rain since midnight (hover to see other rain measurements)
** Current wind speed in m/s (hover to see current wind gust speed)